This is the latest recevied weather packets stored in our database for station/object DK0GS-10. If no packets are shown the sender has not sent any weather packets the latest 10 day(s).
| Time | Temp. | Humidity | Pressure | Rain* | Wind** | Luminosity | Snow |
|---|---|---|---|---|---|---|---|
| 1778163947 | 8.33° C | 92% | 1014.7 hPa | 0 mm | - | - | - |
| 1778161522 | 8.33° C | 91% | 1014.5 hPa | 0 mm | - | - | - |
| 1778157936 | 7.78° C | 93% | 1014 hPa | 0 mm | - | - | - |
| 1778155522 | 7.78° C | 95% | 1013.6 hPa | 0 mm | - | - | - |
| 1778153122 | 7.22° C | 96% | 1013.4 hPa | 0 mm | - | - | - |
| 1778152522 | 7.22° C | 96% | 1013.4 hPa | 0 mm | - | - | - |
| 1778151322 | 7.22° C | 96% | 1013.3 hPa | 0 mm | - | - | - |
| 1778144736 | 7.78° C | 97% | 1011.9 hPa | 0 mm | - | - | - |
| 1778143522 | 7.78° C | 97% | 1011.7 hPa | 0 mm | - | - | - |
| 1778142336 | 7.22° C | 97% | 1011.6 hPa | 0 mm | - | - | - |
| 1778141747 | 7.22° C | 97% | 1011.4 hPa | 0 mm | - | - | - |
| 1778135122 | 7.78° C | 96% | 1010.1 hPa | 0 mm | - | - | - |
| 1778134536 | 7.78° C | 97% | 1009.9 hPa | 0 mm | - | - | - |
| 1778128536 | 7.78° C | 96% | 1008.9 hPa | 0 mm | - | - | - |
| 1778124361 | 8.33° C | 96% | 1008.2 hPa | 1.27 mm | - | - | - |
| 1778118922 | 8.89° C | 96% | 1007.6 hPa | 1.02 mm | - | - | - |
| 1778116560 | 8.89° C | 96% | 1007.3 hPa | 1.27 mm | - | - | - |
| 1778114121 | 8.89° C | 96% | 1007.1 hPa | 1.27 mm | - | - | - |
| 1778111771 | 9.44° C | 96% | 1007 hPa | 2.03 mm | - | - | - |
| 1778107535 | 9.44° C | 96% | 1006.6 hPa | 1.52 mm | - | - | - |
| 1778101523 | 8.89° C | 96% | 1006.2 hPa | 0.25 mm | - | - | - |
| 1778100323 | 9.44° C | 96% | 1006.3 hPa | 0.25 mm | - | - | - |
| 1778094362 | 10.56° C | 95% | 1005.6 hPa | 0.76 mm | - | - | - |
| 1778088323 | 11.67° C | 93% | 1004.8 hPa | 0 mm | - | - | - |
| 1778085923 | 12.22° C | 92% | 1004.6 hPa | 0 mm | - | - | - |
* Rain latest hour (hover to see other rain measurements)
** Current wind speed in m/s (hover to see current wind gust speed)